Time,TemperatureF,DewpointF,PressureIn,WindDirection,WindDirectionDegrees,WindSpeedMPH,WindSpeedGustMPH,Humidity,HourlyPrecipIn,Conditions,Clouds,dailyrainin,SoftwareType,DateUTC
2013-09-23 00:02:00,55.6,53.9,29.94,North,360,0.0,0.0,94,0.00,RA,FEW,0.00,WeatherDisplay:10.37,2013-09-23 05:02:00,
2013-09-23 00:07:00,55.4,53.7,29.94,North,360,0.0,0.0,94,0.00,RA,FEW,0.00,WeatherDisplay:10.37,2013-09-23 05:07:00,
2013-09-23 00:12:00,55.3,53.6,29.94,North,360,0.0,0.0,94,0.00,CLR,FEW,0.00,WeatherDisplay:10.37,2013-09-23 05:12:00,
2013-09-23 00:17:00,55.2,53.5,29.95,North,360,0.0,0.0,94,0.00,CLR,FEW,0.00,WeatherDisplay:10.37,2013-09-23 05:17:00,
2013-09-23 00:22:00,55.1,53.4,29.95,North,360,0.0,0.0,94,0.00,CLR,FEW,0.00,WeatherDisplay:10.37,2013-09-23 05:22:00,
2013-09-23 00:27:00,55.0,53.3,29.95,North,360,0.0,0.0,94,0.00,CLR,FEW,0.00,WeatherDisplay:10.37,2013-09-23 05:27:00,
2013-09-23 00:32:00,54.8,53.1,29.95,North,360,0.0,0.0,94,0.00,CLR,FEW,0.00,WeatherDisplay:10.37,2013-09-23 05:32:00,
2013-09-23 00:37:00,54.7,53.0,29.95,North,360,0.0,0.0,94,0.00,CLR,FEW,0.00,WeatherDisplay:10.37,2013-09-23 05:37:00,
2013-09-23 00:42:00,54.6,52.9,29.95,North,360,0.0,0.0,94,0.00,CLR,FEW,0.00,WeatherDisplay:10.37,2013-09-23 05:42:00,
2013-09-23 00:47:00,54.5,53.1,29.95,North,360,0.0,0.0,95,0.00,CLR,FEW,0.00,WeatherDisplay:10.37,2013-09-23 05:47:00,
2013-09-23 00:52:00,54.3,52.9,29.95,North,360,0.0,0.0,95,0.00,CLR,FEW,0.00,WeatherDisplay:10.37,2013-09-23 05:52:00,
2013-09-23 00:57:00,54.2,52.8,29.95,North,360,0.0,0.0,95,0.00,CLR,FEW,0.00,WeatherDisplay:10.37,2013-09-23 05:57:00,
2013-09-23 01:02:00,54.1,52.7,29.95,North,360,0.0,0.0,95,0.00,CLR,FEW,0.00,WeatherDisplay:10.37,2013-09-23 06:02:00,
2013-09-23 01:07:00,54.0,52.6,29.95,North,360,0.0,0.0,95,0.00,CLR,FEW,0.00,WeatherDisplay:10.37,2013-09-23 06:07:00,
2013-09-23 01:12:00,53.9,52.5,29.95,North,360,0.0,0.0,95,0.00,CLR,FEW,0.00,WeatherDisplay:10.37,2013-09-23 06:12:00,
2013-09-23 01:17:00,53.9,52.5,29.95,North,360,0.0,0.0,95,0.00,CLR,FEW,0.00,WeatherDisplay:10.37,2013-09-23 06:17:00,
2013-09-23 01:22:00,53.8,52.4,29.95,North,360,0.0,0.0,95,0.00,CLR,FEW,0.00,WeatherDisplay:10.37,2013-09-23 06:22:00,
2013-09-23 01:27:00,53.8,52.4,29.95,North,360,0.0,0.0,95,0.00,CLR,FEW,0.00,WeatherDisplay:10.37,2013-09-23 06:27:00,
2013-09-23 01:32:00,53.7,52.3,29.95,North,360,0.0,0.0,95,0.00,CLR,FEW,0.00,WeatherDisplay:10.37,2013-09-23 06:32:00,
2013-09-23 01:37:00,53.5,52.1,29.95,North,360,0.0,0.0,95,0.00,CLR,FEW,0.00,WeatherDisplay:10.37,2013-09-23 06:37:00,
2013-09-23 01:42:00,53.3,51.9,29.95,North,360,0.0,0.0,95,0.00,CLR,FEW,0.00,WeatherDisplay:10.37,2013-09-23 06:42:00,
2013-09-23 01:47:00,53.3,51.9,29.95,North,360,0.0,0.0,95,0.00,CLR,FEW,0.00,WeatherDisplay:10.37,2013-09-23 06:47:00,
2013-09-23 01:52:00,53.3,52.2,29.95,North,360,0.0,0.0,96,0.00,CLR,FEW,0.00,WeatherDisplay:10.37,2013-09-23 06:52:00,
2013-09-23 01:57:00,53.3,51.9,29.95,North,360,0.0,0.0,95,0.00,CLR,FEW,0.00,WeatherDisplay:10.37,2013-09-23 06:57:00,
2013-09-23 02:02:00,53.1,51.7,29.95,North,360,0.0,0.0,95,0.00,CLR,FEW,0.00,WeatherDisplay:10.37,2013-09-23 07:02:00,
2013-09-23 02:07:00,52.8,51.4,29.95,North,360,0.0,0.0,95,0.00,CLR,FEW,0.00,WeatherDisplay:10.37,2013-09-23 07:07:00,
2013-09-23 02:13:00,52.7,51.6,29.95,North,360,0.0,0.0,96,0.00,CLR,FEW,0.00,WeatherDisplay:10.37,2013-09-23 07:13:00,
2013-09-23 02:18:00,52.6,51.5,29.95,North,360,0.0,0.0,96,0.00,CLR,FEW,0.00,WeatherDisplay:10.37,2013-09-23 07:18:00,
2013-09-23 02:23:00,52.6,51.5,29.95,North,360,0.0,0.0,96,0.00,CLR,FEW,0.00,WeatherDisplay:10.37,2013-09-23 07:23:00,
2013-09-23 02:28:00,52.6,51.5,29.95,North,360,0.0,0.0,96,0.00,CLR,FEW,0.00,WeatherDisplay:10.37,2013-09-23 07:28:00,
2013-09-23 02:33:00,52.5,51.4,29.95,North,360,0.0,0.0,96,0.00,CLR,FEW,0.00,WeatherDisplay:10.37,2013-09-23 07:33:00,
2013-09-23 02:38:00,52.5,51.4,29.95,North,360,0.0,0.0,96,0.00,CLR,FEW,0.00,WeatherDisplay:10.37,2013-09-23 07:38:00,
2013-09-23 02:43:00,52.4,51.3,29.95,North,360,0.0,0.0,96,0.00,CLR,FEW,0.00,WeatherDisplay:10.37,2013-09-23 07:43:00,
2013-09-23 02:48:00,52.4,51.3,29.95,North,360,0.0,0.0,96,0.00,CLR,FEW,0.00,WeatherDisplay:10.37,2013-09-23 07:48:00,
2013-09-23 02:53:00,52.4,51.3,29.95,North,360,0.0,0.0,96,0.00,CLR,FEW,0.00,WeatherDisplay:10.37,2013-09-23 07:53:00,
2013-09-23 02:58:00,52.3,51.2,29.95,North,360,0.0,0.0,96,0.00,CLR,FEW,0.00,WeatherDisplay:10.37,2013-09-23 07:58:00,
2013-09-23 03:03:00,52.3,51.2,29.95,North,360,0.0,0.0,96,0.00,CLR,FEW,0.00,WeatherDisplay:10.37,2013-09-23 08:03:00,
2013-09-23 03:08:00,52.2,51.1,29.95,North,360,0.0,0.0,96,0.00,CLR,FEW,0.00,WeatherDisplay:10.37,2013-09-23 08:08:00,
2013-09-23 03:13:00,52.2,51.1,29.95,North,360,0.0,0.0,96,0.00,CLR,FEW,0.00,WeatherDisplay:10.37,2013-09-23 08:13:00,
2013-09-23 03:18:00,52.2,51.1,29.95,North,360,0.0,0.0,96,0.00,CLR,FEW,0.00,WeatherDisplay:10.37,2013-09-23 08:18:00,
2013-09-23 03:23:00,52.2,51.1,29.95,North,360,0.0,0.0,96,0.00,CLR,FEW,0.00,WeatherDisplay:10.37,2013-09-23 08:23:00,
2013-09-23 03:28:00,52.0,50.9,29.95,North,360,0.0,0.0,96,0.00,CLR,FEW,0.00,WeatherDisplay:10.37,2013-09-23 08:28:00,
2013-09-23 03:33:00,51.8,50.7,29.95,North,360,0.0,0.0,96,0.00,CLR,FEW,0.00,WeatherDisplay:10.37,2013-09-23 08:33:00,
2013-09-23 03:38:00,51.8,50.7,29.96,North,360,0.0,0.0,96,0.00,CLR,FEW,0.00,WeatherDisplay:10.37,2013-09-23 08:38:00,
2013-09-23 03:43:00,51.7,50.6,29.96,North,360,0.0,0.0,96,0.00,CLR,FEW,0.00,WeatherDisplay:10.37,2013-09-23 08:43:00,
2013-09-23 03:48:00,51.6,50.5,29.96,North,360,0.0,0.0,96,0.00,CLR,FEW,0.00,WeatherDisplay:10.37,2013-09-23 08:48:00,
2013-09-23 03:53:00,51.5,50.4,29.96,North,360,0.0,0.0,96,0.00,CLR,FEW,0.00,WeatherDisplay:10.37,2013-09-23 08:53:00,
2013-09-23 03:58:00,51.5,50.7,29.96,North,360,0.0,0.0,97,0.00,CLR,FEW,0.00,WeatherDisplay:10.37,2013-09-23 08:58:00,
2013-09-23 04:03:00,51.5,50.7,29.96,North,360,0.0,0.0,97,0.00,CLR,FEW,0.00,WeatherDisplay:10.37,2013-09-23 09:03:00,
2013-09-23 04:08:00,51.6,50.8,29.96,North,360,0.0,0.0,97,0.00,CLR,FEW,0.00,WeatherDisplay:10.37,2013-09-23 09:08:00,
2013-09-23 04:13:00,51.6,50.8,29.96,North,360,0.0,0.0,97,0.00,CLR,FEW,0.00,WeatherDisplay:10.37,2013-09-23 09:13:00,
2013-09-23 04:18:00,51.5,50.7,29.96,North,360,0.0,0.0,97,0.00,CLR,FEW,0.00,WeatherDisplay:10.37,2013-09-23 09:18:00,
2013-09-23 04:23:00,51.5,50.7,29.96,North,360,0.0,0.0,97,0.00,CLR,FEW,0.00,WeatherDisplay:10.37,2013-09-23 09:23:00,
2013-09-23 04:28:00,51.5,50.7,29.96,North,360,0.0,0.0,97,0.00,CLR,FEW,0.00,WeatherDisplay:10.37,2013-09-23 09:28:00,
2013-09-23 04:33:00,51.4,50.6,29.96,North,360,0.0,0.0,97,0.00,CLR,FEW,0.00,WeatherDisplay:10.37,2013-09-23 09:33:00,
2013-09-23 04:38:00,51.4,50.6,29.96,North,360,0.0,0.0,97,0.00,CLR,FEW,0.00,WeatherDisplay:10.37,2013-09-23 09:38:00,
2013-09-23 04:43:00,51.3,50.5,29.96,North,360,0.0,0.0,97,0.00,CLR,FEW,0.00,WeatherDisplay:10.37,2013-09-23 09:43:00,
2013-09-23 04:48:00,51.3,50.5,29.96,North,360,0.0,0.0,97,0.00,CLR,FEW,0.00,WeatherDisplay:10.37,2013-09-23 09:48:00,
2013-09-23 04:53:00,51.2,50.4,29.96,North,360,0.0,0.0,97,0.00,CLR,FEW,0.00,WeatherDisplay:10.37,2013-09-23 09:53:00,
2013-09-23 04:58:00,51.1,50.0,29.97,North,360,0.0,0.0,96,0.00,CLR,FEW,0.00,WeatherDisplay:10.37,2013-09-23 09:58:00,
2013-09-23 05:03:00,51.0,49.9,29.97,North,360,0.0,0.0,96,0.00,CLR,FEW,0.00,WeatherDisplay:10.37,2013-09-23 10:03:00,
2013-09-23 05:08:00,51.1,50.3,29.97,North,360,0.0,0.0,97,0.00,CLR,FEW,0.00,WeatherDisplay:10.37,2013-09-23 10:08:00,
2013-09-23 05:13:00,51.0,50.2,29.97,North,360,0.0,0.0,97,0.00,CLR,FEW,0.00,WeatherDisplay:10.37,2013-09-23 10:13:00,
2013-09-23 05:18:00,51.0,50.2,29.97,North,360,0.0,0.0,97,0.00,CLR,FEW,0.00,WeatherDisplay:10.37,2013-09-23 10:18:00,
2013-09-23 05:23:00,50.9,49.8,29.97,North,360,0.0,0.0,96,0.00,CLR,FEW,0.00,WeatherDisplay:10.37,2013-09-23 10:23:00,
2013-09-23 05:29:00,50.8,49.7,29.97,North,360,0.0,0.0,96,0.00,CLR,FEW,0.00,WeatherDisplay:10.37,2013-09-23 10:29:00,
2013-09-23 05:34:00,50.7,49.9,29.97,North,360,0.0,0.0,97,0.00,CLR,FEW,0.00,WeatherDisplay:10.37,2013-09-23 10:34:00,
2013-09-23 05:39:00,50.9,50.1,29.97,North,360,0.0,0.0,97,0.00,CLR,FEW,0.00,WeatherDisplay:10.37,2013-09-23 10:39:00,
2013-09-23 05:44:00,50.9,50.1,29.97,North,360,0.0,0.0,97,0.00,CLR,FEW,0.00,WeatherDisplay:10.37,2013-09-23 10:44:00,
2013-09-23 05:49:00,50.9,50.1,29.97,North,360,0.0,0.0,97,0.00,CLR,FEW,0.00,WeatherDisplay:10.37,2013-09-23 10:49:00,
2013-09-23 05:54:00,50.9,50.1,29.97,North,360,0.0,0.0,97,0.00,CLR,FEW,0.00,WeatherDisplay:10.37,2013-09-23 10:54:00,
2013-09-23 05:59:00,50.9,50.1,29.98,North,360,0.0,0.0,97,0.00,CLR,FEW,0.00,WeatherDisplay:10.37,2013-09-23 10:59:00,
2013-09-23 06:04:00,50.9,50.1,29.98,North,360,0.0,0.0,97,0.00,CLR,FEW,0.00,WeatherDisplay:10.37,2013-09-23 11:04:00,
2013-09-23 06:09:00,50.7,49.9,29.98,North,360,0.0,0.0,97,0.00,CLR,FEW,0.00,WeatherDisplay:10.37,2013-09-23 11:09:00,
2013-09-23 06:14:00,50.7,49.9,29.98,North,360,0.0,0.0,97,0.00,CLR,FEW,0.00,WeatherDisplay:10.37,2013-09-23 11:14:00,
2013-09-23 06:19:00,50.6,49.8,29.98,North,360,0.0,0.0,97,0.00,CLR,FEW,0.00,WeatherDisplay:10.37,2013-09-23 11:19:00,
2013-09-23 06:24:00,50.6,49.8,29.98,North,360,0.0,0.0,97,0.00,CLR,FEW,0.00,WeatherDisplay:10.37,2013-09-23 11:24:00,
2013-09-23 06:29:00,50.6,49.8,29.98,North,360,0.0,0.0,97,0.00,CLR,FEW,0.00,WeatherDisplay:10.37,2013-09-23 11:29:00,
2013-09-23 06:34:00,50.6,49.8,29.98,North,360,0.0,0.0,97,0.00,CLR,FEW,0.00,WeatherDisplay:10.37,2013-09-23 11:34:00,
2013-09-23 06:39:00,50.6,49.8,29.98,North,360,0.0,0.0,97,0.00,CLR,FEW,0.00,WeatherDisplay:10.37,2013-09-23 11:39:00,
2013-09-23 06:44:00,50.6,49.8,29.98,North,360,0.0,0.0,97,0.00,CLR,FEW,0.00,WeatherDisplay:10.37,2013-09-23 11:44:00,
2013-09-23 06:49:00,50.5,49.4,29.99,North,360,0.0,0.0,96,0.00,CLR,FEW,0.00,WeatherDisplay:10.37,2013-09-23 11:49:00,
2013-09-23 06:54:00,50.4,49.6,29.99,North,360,0.0,0.0,97,0.00,CLR,FEW,0.00,WeatherDisplay:10.37,2013-09-23 11:54:00,
2013-09-23 06:59:00,50.5,49.7,29.99,North,360,0.0,0.0,97,0.00,CLR,FEW,0.00,WeatherDisplay:10.37,2013-09-23 11:59:00,
2013-09-23 07:04:00,50.5,49.7,29.99,North,360,0.0,0.0,97,0.00,CLR,FEW,0.00,WeatherDisplay:10.37,2013-09-23 12:04:00,
2013-09-23 07:09:00,50.5,49.7,29.99,North,360,0.0,0.0,97,0.00,CLR,FEW,0.00,WeatherDisplay:10.37,2013-09-23 12:09:00,
2013-09-23 07:14:00,50.6,49.8,29.99,North,360,0.0,0.0,97,0.00,CLR,FEW,0.00,WeatherDisplay:10.37,2013-09-23 12:14:00,
2013-09-23 07:19:00,50.8,50.0,30.00,North,360,0.0,0.0,97,0.00,CLR,FEW,0.00,WeatherDisplay:10.37,2013-09-23 12:19:00,
2013-09-23 07:24:00,51.0,50.5,30.00,North,360,0.0,0.0,98,0.00,CLR,FEW,0.00,WeatherDisplay:10.37,2013-09-23 12:24:00,
2013-09-23 07:29:00,51.2,50.7,29.99,North,360,0.0,0.0,98,0.00,CLR,FEW,0.00,WeatherDisplay:10.37,2013-09-23 12:29:00,
2013-09-23 07:35:00,51.3,50.8,30.00,North,360,0.0,0.0,98,0.00,CLR,FEW,0.00,WeatherDisplay:10.37,2013-09-23 12:35:00,
2013-09-23 07:40:00,51.4,50.6,30.00,North,360,0.0,0.0,97,0.00,CLR,FEW,0.00,WeatherDisplay:10.37,2013-09-23 12:40:00,
2013-09-23 07:45:00,51.6,51.1,30.00,North,360,0.0,0.0,98,0.00,CLR,FEW,0.00,WeatherDisplay:10.37,2013-09-23 12:45:00,
2013-09-23 07:50:00,52.0,51.5,30.00,North,360,0.0,0.0,98,0.00,CLR,FEW,0.00,WeatherDisplay:10.37,2013-09-23 12:50:00,
2013-09-23 07:55:00,52.4,51.9,30.00,North,360,0.0,0.0,98,0.00,CLR,FEW,0.00,WeatherDisplay:10.37,2013-09-23 12:55:00,
2013-09-23 08:00:00,53.0,52.5,30.00,ESE,103,0.0,0.0,98,0.00,CLR,FEW,0.00,WeatherDisplay:10.37,2013-09-23 13:00:00,
2013-09-23 08:05:00,53.7,53.1,30.00,ESE,103,0.0,0.0,98,0.00,CLR,FEW,0.00,WeatherDisplay:10.37,2013-09-23 13:05:00,
2013-09-23 08:10:00,54.5,53.9,30.00,ESE,114,0.0,0.0,98,0.00,CLR,FEW,0.00,WeatherDisplay:10.37,2013-09-23 13:10:00,
2013-09-23 08:15:00,55.3,54.7,30.00,ESE,114,0.0,0.0,98,0.00,CLR,FEW,0.00,WeatherDisplay:10.37,2013-09-23 13:15:00,
2013-09-23 08:20:00,56.0,55.4,30.01,East,96,0.0,0.0,98,0.00,CLR,FEW,0.00,WeatherDisplay:10.37,2013-09-23 13:20:00,
2013-09-23 08:25:00,56.6,54.9,30.01,East,80,0.0,0.0,94,0.00,CLR,FEW,0.00,WeatherDisplay:10.37,2013-09-23 13:25:00,
2013-09-23 08:30:00,57.1,54.8,30.01,East,92,0.0,0.0,92,0.00,CLR,FEW,0.00,WeatherDisplay:10.37,2013-09-23 13:30:00,
2013-09-23 08:35:00,57.8,55.2,30.01,East,97,0.0,0.0,91,0.00,CLR,FEW,0.00,WeatherDisplay:10.37,2013-09-23 13:35:00,
2013-09-23 08:40:00,58.4,55.5,30.01,ENE,74,0.0,0.0,90,0.00,CLR,FEW,0.00,WeatherDisplay:10.37,2013-09-23 13:40:00,
2013-09-23 08:45:00,59.0,55.8,30.01,East,99,0.0,0.0,89,0.00,CLR,FEW,0.00,WeatherDisplay:10.37,2013-09-23 13:45:00,
2013-09-23 08:50:00,59.7,56.1,30.01,NE,44,0.0,0.0,88,0.00,CLR,FEW,0.00,WeatherDisplay:10.37,2013-09-23 13:50:00,
2013-09-23 08:55:00,60.3,56.4,30.01,NE,40,0.0,0.0,87,0.00,CLR,FEW,0.00,WeatherDisplay:10.37,2013-09-23 13:55:00,
2013-09-23 09:00:00,60.8,56.9,30.01,SE,135,0.0,0.0,87,0.00,CLR,FEW,0.00,WeatherDisplay:10.37,2013-09-23 14:00:00,
2013-09-23 09:05:00,61.4,57.2,30.01,ENE,76,0.0,0.0,86,0.00,CLR,FEW,0.00,WeatherDisplay:10.37,2013-09-23 14:05:00,
2013-09-23 09:10:00,61.8,56.9,30.01,SSE,148,0.0,0.0,84,0.00,CLR,FEW,0.00,WeatherDisplay:10.37,2013-09-23 14:10:00,
2013-09-23 09:15:00,62.2,57.3,30.01,SE,132,0.0,0.0,84,0.00,CLR,FEW,0.00,WeatherDisplay:10.37,2013-09-23 14:15:00,
2013-09-23 09:20:00,62.7,58.1,30.01,East,90,0.0,0.0,85,0.00,CLR,FEW,0.00,WeatherDisplay:10.37,2013-09-23 14:20:00,
2013-09-23 09:25:00,63.4,57.8,30.01,ENE,62,0.0,0.0,82,0.00,CLR,FEW,0.00,WeatherDisplay:10.37,2013-09-23 14:25:00,
2013-09-23 09:30:00,63.7,58.4,30.01,East,94,0.0,0.0,83,0.00,CLR,FEW,0.00,WeatherDisplay:10.37,2013-09-23 14:30:00,
2013-09-23 09:35:00,64.1,58.1,30.01,NNE,28,0.0,0.0,81,0.00,CLR,FEW,0.00,WeatherDisplay:10.37,2013-09-23 14:35:00,
2013-09-23 09:40:00,64.5,58.5,30.01,North,5,0.0,0.0,81,0.00,CLR,FEW,0.00,WeatherDisplay:10.37,2013-09-23 14:40:00,
2013-09-23 09:45:00,65.0,58.7,30.01,ENE,63,0.0,0.0,80,0.00,CLR,FEW,0.00,WeatherDisplay:10.37,2013-09-23 14:45:00,
2013-09-23 09:50:00,65.1,57.7,30.01,NE,56,0.0,0.0,77,0.00,CLR,FEW,0.00,WeatherDisplay:10.37,2013-09-23 14:50:00,
2013-09-23 09:55:00,65.3,58.6,30.01,NE,51,0.0,0.0,79,0.00,CLR,FEW,0.00,WeatherDisplay:10.37,2013-09-23 14:55:00,
2013-09-23 10:00:00,65.6,58.6,30.01,ENE,67,0.0,0.0,78,0.00,CLR,FEW,0.00,WeatherDisplay:10.37,2013-09-23 15:00:00,
2013-09-23 10:05:00,66.1,59.0,30.02,ENE,61,0.0,0.0,78,0.00,CLR,FEW,0.00,WeatherDisplay:10.37,2013-09-23 15:05:00,
2013-09-23 10:10:00,66.4,58.6,30.02,ENE,65,0.0,0.0,76,0.00,CLR,FEW,0.00,WeatherDisplay:10.37,2013-09-23 15:10:00,
2013-09-23 10:15:00,66.7,58.9,30.01,ESE,117,0.0,0.0,76,0.00,CLR,FEW,0.00,WeatherDisplay:10.37,2013-09-23 15:15:00,
2013-09-23 10:20:00,67.1,59.3,30.01,NE,54,0.0,0.0,76,0.00,CLR,FEW,0.00,WeatherDisplay:10.37,2013-09-23 15:20:00,
2013-09-23 10:25:00,67.7,59.9,30.01,ENE,68,0.0,0.0,76,0.00,CLR,FEW,0.00,WeatherDisplay:10.37,2013-09-23 15:25:00,
2013-09-23 10:30:00,68.2,60.0,30.01,NE,39,0.0,0.0,75,0.00,CLR,FEW,0.00,WeatherDisplay:10.37,2013-09-23 15:30:00,
2013-09-23 10:35:00,68.3,59.3,30.01,East,84,0.0,0.0,73,0.00,CLR,FEW,0.00,WeatherDisplay:10.37,2013-09-23 15:35:00,
2013-09-23 10:40:00,68.6,60.4,30.01,SE,128,0.0,0.0,75,0.00,CLR,FEW,0.00,WeatherDisplay:10.37,2013-09-23 15:40:00,
2013-09-23 10:45:00,69.2,59.8,30.01,ESE,114,0.0,0.0,72,0.00,CLR,FEW,0.00,WeatherDisplay:10.37,2013-09-23 15:45:00,
2013-09-23 10:51:00,69.4,60.8,30.01,North,11,0.0,0.0,74,0.00,CLR,FEW,0.00,WeatherDisplay:10.37,2013-09-23 15:51:00,
2013-09-23 10:56:00,69.4,60.0,30.01,North,355,0.0,0.0,72,0.00,CLR,FEW,0.00,WeatherDisplay:10.37,2013-09-23 15:56:00,
2013-09-23 11:01:00,69.3,59.5,30.01,NE,49,0.0,0.0,71,0.00,CLR,FEW,0.00,WeatherDisplay:10.37,2013-09-23 16:01:00,
2013-09-23 11:06:00,69.6,60.6,30.01,North,360,0.0,0.0,73,0.00,CLR,FEW,0.00,WeatherDisplay:10.37,2013-09-23 16:06:00,
2013-09-23 11:11:00,69.5,60.1,30.01,NNW,338,0.0,0.0,72,0.00,CLR,FEW,0.00,WeatherDisplay:10.37,2013-09-23 16:11:00,
2013-09-23 11:16:00,69.9,60.8,30.01,NNE,15,0.0,0.0,73,0.00,CLR,FEW,0.00,WeatherDisplay:10.37,2013-09-23 16:16:00,
2013-09-23 11:21:00,70.3,60.8,30.01,NNE,32,0.0,0.0,72,0.00,CLR,FEW,0.00,WeatherDisplay:10.37,2013-09-23 16:21:00,
2013-09-23 11:26:00,70.6,60.7,30.00,NE,56,0.0,0.0,71,0.00,CLR,FEW,0.00,WeatherDisplay:10.37,2013-09-23 16:26:00,
2013-09-23 11:31:00,70.7,61.6,30.00,NNW,339,0.0,0.0,73,0.00,CLR,FEW,0.00,WeatherDisplay:10.37,2013-09-23 16:31:00,
2013-09-23 11:36:00,71.0,59.9,30.00,ENE,59,0.0,0.0,68,0.00,CLR,FEW,0.00,WeatherDisplay:10.37,2013-09-23 16:36:00,
2013-09-23 11:41:00,71.4,60.7,30.00,ENE,57,0.0,0.0,69,0.00,CLR,FEW,0.00,WeatherDisplay:10.37,2013-09-23 16:41:00,
2013-09-23 11:46:00,71.9,60.3,30.00,SE,126,0.0,0.0,67,0.00,CLR,FEW,0.00,WeatherDisplay:10.37,2013-09-23 16:46:00,
2013-09-23 11:51:00,72.2,61.5,30.00,North,355,0.0,0.0,69,0.00,CLR,FEW,0.00,WeatherDisplay:10.37,2013-09-23 16:51:00,
2013-09-23 11:56:00,72.5,61.7,29.99,North,9,0.0,0.0,69,0.00,CLR,FEW,0.00,WeatherDisplay:10.37,2013-09-23 16:56:00,
2013-09-23 12:01:00,73.0,62.2,29.99,NE,53,0.0,0.0,69,0.00,CLR,FEW,0.00,WeatherDisplay:10.37,2013-09-23 17:01:00,
2013-09-23 12:06:00,73.0,60.1,29.99,NE,34,0.0,0.0,64,0.00,CLR,FEW,0.00,WeatherDisplay:10.37,2013-09-23 17:06:00,
2013-09-23 12:11:00,72.9,60.0,29.99,South,169,0.0,0.0,64,0.00,CLR,FEW,0.00,WeatherDisplay:10.37,2013-09-23 17:11:00,
2013-09-23 12:16:00,73.1,59.8,29.99,NNW,339,0.0,0.0,63,0.00,CLR,FEW,0.00,WeatherDisplay:10.37,2013-09-23 17:16:00,
2013-09-23 12:21:00,73.1,59.3,29.98,ENE,69,0.0,0.0,62,0.00,CLR,FEW,0.00,WeatherDisplay:10.37,2013-09-23 17:21:00,
2013-09-23 12:26:00,73.5,59.7,29.98,North,351,0.0,0.0,62,0.00,CLR,FEW,0.00,WeatherDisplay:10.37,2013-09-23 17:26:00,
2013-09-23 12:31:00,73.5,59.2,29.98,NNW,335,0.0,0.0,61,0.00,CLR,FEW,0.00,WeatherDisplay:10.37,2013-09-23 17:31:00,
2013-09-23 12:36:00,73.6,60.2,29.98,North,5,0.0,0.0,63,0.00,-RA,FEW,0.00,WeatherDisplay:10.37,2013-09-23 17:36:00,
2013-09-23 12:41:00,74.0,61.0,29.98,ENE,78,0.0,0.0,64,0.00,-RA,FEW,0.00,WeatherDisplay:10.37,2013-09-23 17:41:00,
2013-09-23 12:46:00,74.3,60.4,29.98,West,263,0.0,0.0,62,0.00,-RA,FEW,0.00,WeatherDisplay:10.37,2013-09-23 17:46:00,
2013-09-23 12:51:00,74.7,60.4,29.98,South,171,0.0,0.0,61,0.00,-RA,FEW,0.00,WeatherDisplay:10.37,2013-09-23 17:51:00,
2013-09-23 12:56:00,75.0,61.5,29.98,North,351,0.0,0.0,63,0.00,-RA,FEW,0.00,WeatherDisplay:10.37,2013-09-23 17:56:00,
2013-09-23 13:01:00,75.0,61.1,29.97,NE,36,0.0,0.0,62,0.00,-RA,FEW,0.00,WeatherDisplay:10.37,2013-09-23 18:01:00,
2013-09-23 13:06:00,75.2,61.7,29.97,NNW,334,0.0,0.0,63,0.00,-RA,FEW,0.00,WeatherDisplay:10.37,2013-09-23 18:06:00,
2013-09-23 13:11:00,75.3,61.8,29.97,ESE,122,0.0,0.0,63,0.00,-RA,FEW,0.00,WeatherDisplay:10.37,2013-09-23 18:11:00,
2013-09-23 13:16:00,75.3,60.5,29.96,SW,220,0.0,0.0,60,0.00,-RA,FEW,0.00,WeatherDisplay:10.37,2013-09-23 18:16:00,
2013-09-23 13:21:00,75.6,59.8,29.96,ESE,105,0.0,0.0,58,0.00,-RA,FEW,0.00,WeatherDisplay:10.37,2013-09-23 18:21:00,
2013-09-23 13:26:00,75.9,60.1,29.96,SE,126,0.0,0.0,58,0.00,-RA,FEW,0.00,WeatherDisplay:10.37,2013-09-23 18:26:00,
2013-09-23 13:31:00,76.1,61.2,29.97,South,184,0.0,0.0,60,0.00,-RA,FEW,0.00,WeatherDisplay:10.37,2013-09-23 18:31:00,
2013-09-23 13:36:00,76.4,61.0,29.96,ESE,121,0.0,0.0,59,0.00,CLR,FEW,0.00,WeatherDisplay:10.37,2013-09-23 18:36:00,
2013-09-23 13:41:00,76.8,60.9,29.96,NE,44,0.0,0.0,58,0.00,CLR,FEW,0.00,WeatherDisplay:10.37,2013-09-23 18:41:00,
2013-09-23 13:46:00,76.8,60.9,29.96,ESE,111,0.0,0.0,58,0.00,CLR,FEW,0.00,WeatherDisplay:10.37,2013-09-23 18:46:00,
2013-09-23 13:51:00,76.7,62.2,29.96,East,88,0.0,0.0,61,0.00,CLR,FEW,0.00,WeatherDisplay:10.37,2013-09-23 18:51:00,
2013-09-23 13:56:00,76.6,62.1,29.96,ENE,76,0.0,0.0,61,0.00,CLR,FEW,0.00,WeatherDisplay:10.37,2013-09-23 18:56:00,
2013-09-23 14:01:00,76.9,60.5,29.96,ESE,120,0.0,0.0,57,0.00,CLR,FEW,0.00,WeatherDisplay:10.37,2013-09-23 19:01:00,
2013-09-23 14:06:00,77.3,61.9,29.96,East,101,0.0,0.0,59,0.00,CLR,FEW,0.00,WeatherDisplay:10.37,2013-09-23 19:06:00,
2013-09-23 14:11:00,77.3,62.3,29.95,SSE,162,0.0,0.0,60,0.00,CLR,FEW,0.00,WeatherDisplay:10.37,2013-09-23 19:11:00,
2013-09-23 14:16:00,77.1,60.2,29.95,East,84,0.0,0.0,56,0.00,CLR,FEW,0.00,WeatherDisplay:10.37,2013-09-23 19:16:00,
2013-09-23 14:21:00,77.1,61.2,29.95,NNE,24,0.0,0.0,58,0.00,CLR,FEW,0.00,WeatherDisplay:10.37,2013-09-23 19:21:00,
2013-09-23 14:26:00,77.5,63.5,29.95,North,5,0.0,0.0,62,0.00,CLR,FEW,0.00,WeatherDisplay:10.37,2013-09-23 19:26:00,
2013-09-23 14:31:00,77.9,61.4,29.95,South,169,0.0,0.0,57,0.00,CLR,FEW,0.00,WeatherDisplay:10.37,2013-09-23 19:31:00,
2013-09-23 14:36:00,78.0,58.9,29.95,NNE,13,0.0,0.0,52,0.00,CLR,FEW,0.00,WeatherDisplay:10.37,2013-09-23 19:36:00,
2013-09-23 14:41:00,78.0,60.5,29.94,NE,38,0.0,0.0,55,0.00,CLR,FEW,0.00,WeatherDisplay:10.37,2013-09-23 19:41:00,
2013-09-23 14:46:00,78.0,61.0,29.95,SE,126,0.0,0.0,56,0.00,CLR,FEW,0.00,WeatherDisplay:10.37,2013-09-23 19:46:00,
2013-09-23 14:51:00,78.1,61.1,29.94,NE,51,0.0,0.0,56,0.00,CLR,FEW,0.00,WeatherDisplay:10.37,2013-09-23 19:51:00,
2013-09-23 14:57:00,78.0,60.0,29.94,NE,55,0.0,0.0,54,0.00,CLR,FEW,0.00,WeatherDisplay:10.37,2013-09-23 19:57:00,
2013-09-23 15:02:00,78.4,61.4,29.94,South,171,0.0,0.0,56,0.00,CLR,FEW,0.00,WeatherDisplay:10.37,2013-09-23 20:02:00,
2013-09-23 15:07:00,78.9,62.9,29.94,ESE,121,0.0,0.0,58,0.00,CLR,FEW,0.00,WeatherDisplay:10.37,2013-09-23 20:07:00,
2013-09-23 15:12:00,79.3,61.2,29.94,SSE,148,0.0,0.0,54,0.00,CLR,FEW,0.00,WeatherDisplay:10.37,2013-09-23 20:12:00,
2013-09-23 15:17:00,79.2,60.6,29.94,East,96,0.0,0.0,53,0.00,CLR,FEW,0.00,WeatherDisplay:10.37,2013-09-23 20:17:00,
2013-09-23 15:22:00,79.3,62.2,29.94,ENE,76,0.0,0.0,56,0.00,CLR,FEW,0.00,WeatherDisplay:10.37,2013-09-23 20:22:00,
2013-09-23 15:27:00,79.4,61.3,29.94,East,88,0.0,0.0,54,0.00,CLR,FEW,0.00,WeatherDisplay:10.37,2013-09-23 20:27:00,
2013-09-23 15:32:00,79.5,60.9,29.94,ESE,121,0.0,0.0,53,0.00,CLR,FEW,0.00,WeatherDisplay:10.37,2013-09-23 20:32:00,
2013-09-23 15:37:00,79.4,60.8,29.94,South,169,0.0,0.0,53,0.00,CLR,FEW,0.00,WeatherDisplay:10.37,2013-09-23 20:37:00,
2013-09-23 15:42:00,79.3,61.2,29.94,East,86,0.0,0.0,54,0.00,CLR,FEW,0.00,WeatherDisplay:10.37,2013-09-23 20:42:00,
2013-09-23 15:47:00,79.1,61.0,29.94,ENE,57,0.0,0.0,54,0.00,CLR,FEW,0.00,WeatherDisplay:10.37,2013-09-23 20:47:00,
2013-09-23 15:52:00,79.1,60.5,29.94,ENE,59,0.0,0.0,53,0.00,CLR,FEW,0.00,WeatherDisplay:10.37,2013-09-23 20:52:00,
2013-09-23 15:57:00,79.0,61.5,29.94,ENE,68,0.0,0.0,55,0.00,CLR,FEW,0.00,WeatherDisplay:10.37,2013-09-23 20:57:00,
2013-09-23 16:02:00,78.8,60.2,29.93,East,80,0.0,0.0,53,0.00,CLR,FEW,0.00,WeatherDisplay:10.37,2013-09-23 21:02:00,
2013-09-23 16:07:00,78.7,61.2,29.94,ESE,107,0.0,0.0,55,0.00,CLR,FEW,0.00,WeatherDisplay:10.37,2013-09-23 21:07:00,
2013-09-23 16:12:00,78.7,61.7,29.93,ENE,63,0.0,0.0,56,0.00,CLR,FEW,0.00,WeatherDisplay:10.37,2013-09-23 21:12:00,
2013-09-23 16:17:00,78.7,61.2,29.93,East,97,0.0,0.0,55,0.00,CLR,FEW,0.00,WeatherDisplay:10.37,2013-09-23 21:17:00,
2013-09-23 16:22:00,78.6,61.6,29.93,NNE,28,0.0,0.0,56,0.00,CLR,FEW,0.00,WeatherDisplay:10.37,2013-09-23 21:22:00,
2013-09-23 16:27:00,78.4,60.4,29.93,East,80,0.0,0.0,54,0.00,CLR,FEW,0.00,WeatherDisplay:10.37,2013-09-23 21:27:00,
2013-09-23 16:32:00,78.4,59.9,29.93,ENE,63,0.0,0.0,53,0.00,CLR,FEW,0.00,WeatherDisplay:10.37,2013-09-23 21:32:00,
2013-09-23 16:37:00,78.4,59.9,29.93,East,100,0.0,0.0,53,0.00,CLR,FEW,0.00,WeatherDisplay:10.37,2013-09-23 21:37:00,
2013-09-23 16:42:00,78.4,59.3,29.93,NNE,17,0.0,0.0,52,0.00,CLR,FEW,0.00,WeatherDisplay:10.37,2013-09-23 21:42:00,
2013-09-23 16:47:00,78.2,60.2,29.93,East,93,0.0,0.0,54,0.00,CLR,FEW,0.00,WeatherDisplay:10.37,2013-09-23 21:47:00,
2013-09-23 16:52:00,78.1,61.1,29.93,East,94,0.0,0.0,56,0.00,CLR,FEW,0.00,WeatherDisplay:10.37,2013-09-23 21:52:00,
2013-09-23 16:57:00,77.9,59.9,29.93,SSE,159,0.0,0.0,54,0.00,CLR,FEW,0.00,WeatherDisplay:10.37,2013-09-23 21:57:00,
2013-09-23 17:02:00,77.8,60.3,29.93,East,81,0.0,0.0,55,0.00,CLR,FEW,0.00,WeatherDisplay:10.37,2013-09-23 22:02:00,
2013-09-23 17:07:00,77.4,61.5,29.93,NNE,31,0.0,0.0,58,0.00,CLR,FEW,0.00,WeatherDisplay:10.37,2013-09-23 22:07:00,
2013-09-23 17:12:00,76.9,60.5,29.93,East,92,0.0,0.0,57,0.00,CLR,FEW,0.00,WeatherDisplay:10.37,2013-09-23 22:12:00,
2013-09-23 17:17:00,76.6,61.2,29.93,ENE,63,0.0,0.0,59,0.00,CLR,FEW,0.00,WeatherDisplay:10.37,2013-09-23 22:17:00,
2013-09-23 17:22:00,76.2,60.3,29.93,NE,38,0.0,0.0,58,0.00,CLR,FEW,0.00,WeatherDisplay:10.37,2013-09-23 22:22:00,
2013-09-23 17:27:00,75.9,61.5,29.93,ENE,69,0.0,0.0,61,0.00,CLR,FEW,0.00,WeatherDisplay:10.37,2013-09-23 22:27:00,
2013-09-23 17:32:00,75.3,61.8,29.93,ENE,69,0.0,0.0,63,0.00,CLR,FEW,0.00,WeatherDisplay:10.37,2013-09-23 22:32:00,
2013-09-23 17:37:00,74.5,62.0,29.93,ENE,69,0.0,0.0,65,0.00,CLR,FEW,0.00,WeatherDisplay:10.37,2013-09-23 22:37:00,
2013-09-23 17:42:00,74.2,62.1,29.93,ENE,69,0.0,0.0,66,0.00,CLR,FEW,0.00,WeatherDisplay:10.37,2013-09-23 22:42:00,
2013-09-23 17:47:00,73.9,62.2,29.93,ENE,69,0.0,0.0,67,0.00,CLR,FEW,0.00,WeatherDisplay:10.37,2013-09-23 22:47:00,
2013-09-23 17:52:00,73.5,62.3,29.93,ENE,69,0.0,0.0,68,0.00,CLR,FEW,0.00,WeatherDisplay:10.37,2013-09-23 22:52:00,
2013-09-23 17:57:00,72.9,62.1,29.93,ENE,77,0.0,0.0,69,0.00,CLR,FEW,0.00,WeatherDisplay:10.37,2013-09-23 22:57:00,
2013-09-23 18:02:00,72.4,62.5,29.93,ESE,117,0.0,0.0,71,0.00,CLR,FEW,0.00,WeatherDisplay:10.37,2013-09-23 23:02:00,
2013-09-23 18:07:00,71.9,63.2,29.93,ENE,59,0.0,0.0,74,0.00,CLR,FEW,0.00,WeatherDisplay:10.37,2013-09-23 23:07:00,
2013-09-23 18:12:00,71.4,63.1,29.93,ENE,59,0.0,0.0,75,0.00,CLR,FEW,0.00,WeatherDisplay:10.37,2013-09-23 23:12:00,
2013-09-23 18:17:00,71.1,63.1,29.93,ENE,59,0.0,0.0,76,0.00,CLR,FEW,0.00,WeatherDisplay:10.37,2013-09-23 23:17:00,
2013-09-23 18:22:00,70.6,63.4,29.93,ENE,59,0.0,0.0,78,0.00,CLR,FEW,0.00,WeatherDisplay:10.37,2013-09-23 23:22:00,
2013-09-23 18:27:00,70.0,63.5,29.93,ENE,59,0.0,0.0,80,0.00,CLR,FEW,0.00,WeatherDisplay:10.37,2013-09-23 23:27:00,
2013-09-23 18:33:00,69.5,63.4,29.93,ENE,59,0.0,0.0,81,0.00,CLR,FEW,0.00,WeatherDisplay:10.37,2013-09-23 23:33:00,
2013-09-23 18:38:00,69.0,63.3,29.93,ENE,59,0.0,0.0,82,0.00,CLR,FEW,0.00,WeatherDisplay:10.37,2013-09-23 23:38:00,
2013-09-23 18:43:00,68.5,63.1,29.93,ENE,59,0.0,0.0,83,0.00,CLR,FEW,0.00,WeatherDisplay:10.37,2013-09-23 23:43:00,
2013-09-23 18:48:00,68.0,63.0,29.93,ENE,59,0.0,0.0,84,0.00,CLR,FEW,0.00,WeatherDisplay:10.37,2013-09-23 23:48:00,
2013-09-23 18:53:00,67.6,62.9,29.93,ENE,59,0.0,0.0,85,0.00,CLR,FEW,0.00,WeatherDisplay:10.37,2013-09-23 23:53:00,
2013-09-23 18:58:00,67.2,62.5,29.93,ENE,59,0.0,0.0,85,0.00,CLR,FEW,0.00,WeatherDisplay:10.37,2013-09-23 23:58:00,
2013-09-23 19:03:00,66.8,62.5,29.93,ENE,59,0.0,0.0,86,0.00,CLR,FEW,0.00,WeatherDisplay:10.37,2013-09-24 00:03:00,
2013-09-23 19:08:00,66.5,62.2,29.94,ENE,59,0.0,0.0,86,0.00,CLR,FEW,0.00,WeatherDisplay:10.37,2013-09-24 00:08:00,
2013-09-23 19:13:00,66.1,62.4,29.94,ENE,59,0.0,0.0,88,0.00,CLR,FEW,0.00,WeatherDisplay:10.37,2013-09-24 00:13:00,
2013-09-23 19:18:00,65.7,62.4,29.93,ENE,59,0.0,0.0,89,0.00,CLR,FEW,0.00,WeatherDisplay:10.37,2013-09-24 00:18:00,
2013-09-23 19:23:00,65.4,62.4,29.93,ENE,59,0.0,0.0,90,0.00,CLR,FEW,0.00,WeatherDisplay:10.37,2013-09-24 00:23:00,
2013-09-23 19:28:00,65.1,62.4,29.93,ENE,59,0.0,0.0,91,0.00,CLR,FEW,0.00,WeatherDisplay:10.37,2013-09-24 00:28:00,
2013-09-23 19:33:00,64.8,62.1,29.93,ENE,59,0.0,0.0,91,0.00,CLR,FEW,0.00,WeatherDisplay:10.37,2013-09-24 00:33:00,
2013-09-23 19:38:00,64.5,62.1,29.93,ENE,59,0.0,0.0,92,0.00,CLR,FEW,0.00,WeatherDisplay:10.37,2013-09-24 00:38:00,
2013-09-23 19:43:00,64.2,61.8,29.94,ENE,59,0.0,0.0,92,0.00,CLR,FEW,0.00,WeatherDisplay:10.37,2013-09-24 00:43:00,
2013-09-23 19:48:00,63.9,61.8,29.94,ENE,59,0.0,0.0,93,0.00,CLR,FEW,0.00,WeatherDisplay:10.37,2013-09-24 00:48:00,
2013-09-23 19:53:00,63.7,61.6,29.94,ENE,59,0.0,0.0,93,0.00,CLR,FEW,0.00,WeatherDisplay:10.37,2013-09-24 00:53:00,
2013-09-23 19:58:00,63.5,61.4,29.94,ENE,59,0.0,0.0,93,0.00,CLR,FEW,0.00,WeatherDisplay:10.37,2013-09-24 00:58:00,
2013-09-23 20:03:00,63.3,61.2,29.94,ENE,59,0.0,0.0,93,0.00,CLR,FEW,0.00,WeatherDisplay:10.37,2013-09-24 01:03:00,
2013-09-23 20:08:00,63.2,61.4,29.94,ENE,59,0.0,0.0,94,0.00,CLR,FEW,0.00,WeatherDisplay:10.37,2013-09-24 01:08:00,
2013-09-23 20:13:00,63.2,61.4,29.94,ENE,59,0.0,0.0,94,0.00,CLR,FEW,0.00,WeatherDisplay:10.37,2013-09-24 01:13:00,
2013-09-23 20:18:00,63.1,61.3,29.94,ENE,59,0.0,0.0,94,0.00,CLR,FEW,0.00,WeatherDisplay:10.37,2013-09-24 01:18:00,
2013-09-23 20:23:00,63.1,61.3,29.94,ENE,59,0.0,0.0,94,0.00,CLR,FEW,0.00,WeatherDisplay:10.37,2013-09-24 01:23:00,
2013-09-23 20:28:00,62.9,61.1,29.94,ENE,59,0.0,0.0,94,0.00,CLR,FEW,0.00,WeatherDisplay:10.37,2013-09-24 01:28:00,
2013-09-23 20:33:00,62.6,60.8,29.95,ENE,59,0.0,0.0,94,0.00,CLR,FEW,0.00,WeatherDisplay:10.37,2013-09-24 01:33:00,
2013-09-23 20:38:00,62.3,60.6,29.95,ENE,59,0.0,0.0,94,0.00,CLR,FEW,0.00,WeatherDisplay:10.37,2013-09-24 01:38:00,
2013-09-23 20:43:00,62.3,60.8,29.95,ENE,59,0.0,0.0,95,0.00,CLR,FEW,0.00,WeatherDisplay:10.37,2013-09-24 01:43:00,
2013-09-23 20:49:00,62.3,60.8,29.95,ENE,59,0.0,0.0,95,0.00,CLR,FEW,0.00,WeatherDisplay:10.37,2013-09-24 01:49:00,
2013-09-23 20:54:00,62.3,60.8,29.95,ENE,59,0.0,0.0,95,0.00,CLR,FEW,0.00,WeatherDisplay:10.37,2013-09-24 01:54:00,
2013-09-23 20:59:00,62.1,60.7,29.95,ENE,59,0.0,0.0,95,0.00,CLR,FEW,0.00,WeatherDisplay:10.37,2013-09-24 01:59:00,
2013-09-23 21:04:00,61.9,60.2,29.95,ENE,59,0.0,0.0,94,0.00,CLR,FEW,0.00,WeatherDisplay:10.37,2013-09-24 02:04:00,
2013-09-23 21:09:00,61.8,60.4,29.95,ENE,59,0.0,0.0,95,0.00,CLR,FEW,0.00,WeatherDisplay:10.37,2013-09-24 02:09:00,
2013-09-23 21:14:00,61.8,60.4,29.95,East,85,0.0,0.0,95,0.00,CLR,FEW,0.00,WeatherDisplay:10.37,2013-09-24 02:14:00,
2013-09-23 21:19:00,61.8,60.6,29.95,East,84,0.0,0.0,96,0.00,CLR,FEW,0.00,WeatherDisplay:10.37,2013-09-24 02:19:00,
2013-09-23 21:24:00,61.8,60.4,29.95,East,85,0.0,0.0,95,0.00,CLR,FEW,0.00,WeatherDisplay:10.37,2013-09-24 02:24:00,
2013-09-23 21:29:00,61.6,60.2,29.95,East,85,0.0,0.0,95,0.00,CLR,FEW,0.00,WeatherDisplay:10.37,2013-09-24 02:29:00,
2013-09-23 21:34:00,61.4,60.0,29.95,East,84,0.0,0.0,95,0.00,CLR,FEW,0.00,WeatherDisplay:10.37,2013-09-24 02:34:00,
2013-09-23 21:39:00,61.3,59.9,29.95,East,84,0.0,0.0,95,0.00,CLR,FEW,0.00,WeatherDisplay:10.37,2013-09-24 02:39:00,
2013-09-23 21:44:00,61.1,59.7,29.95,East,84,0.0,0.0,95,0.00,CLR,FEW,0.00,WeatherDisplay:10.37,2013-09-24 02:44:00,
2013-09-23 21:49:00,60.9,59.5,29.96,East,85,0.0,0.0,95,0.00,CLR,FEW,0.00,WeatherDisplay:10.37,2013-09-24 02:49:00,
2013-09-23 21:54:00,60.9,59.8,29.96,East,85,0.0,0.0,96,0.00,CLR,FEW,0.00,WeatherDisplay:10.37,2013-09-24 02:54:00,
2013-09-23 21:59:00,60.7,59.6,29.96,East,85,0.0,0.0,96,0.00,CLR,FEW,0.00,WeatherDisplay:10.37,2013-09-24 02:59:00,
2013-09-23 22:04:00,60.7,59.6,29.96,East,84,0.0,0.0,96,0.00,CLR,FEW,0.00,WeatherDisplay:10.37,2013-09-24 03:04:00,
2013-09-23 22:09:00,60.5,59.4,29.96,East,85,0.0,0.0,96,0.00,CLR,FEW,0.00,WeatherDisplay:10.37,2013-09-24 03:09:00,
2013-09-23 22:14:00,60.4,59.3,29.96,East,84,0.0,0.0,96,0.00,CLR,FEW,0.00,WeatherDisplay:10.37,2013-09-24 03:14:00,
2013-09-23 22:19:00,60.3,59.2,29.96,East,85,0.0,0.0,96,0.00,CLR,FEW,0.00,WeatherDisplay:10.37,2013-09-24 03:19:00,
2013-09-23 22:24:00,60.2,59.1,29.96,East,85,0.0,0.0,96,0.00,CLR,FEW,0.00,WeatherDisplay:10.37,2013-09-24 03:24:00,
2013-09-23 22:29:00,60.1,59.0,29.96,East,84,0.0,0.0,96,0.00,CLR,FEW,0.00,WeatherDisplay:10.37,2013-09-24 03:29:00,
2013-09-23 22:34:00,60.1,59.0,29.96,East,84,0.0,0.0,96,0.00,CLR,FEW,0.00,WeatherDisplay:10.37,2013-09-24 03:34:00,
2013-09-23 22:39:00,60.2,59.1,29.96,East,85,0.0,0.0,96,0.00,CLR,FEW,0.00,WeatherDisplay:10.37,2013-09-24 03:39:00,
2013-09-23 22:44:00,60.1,59.0,29.96,East,84,0.0,0.0,96,0.00,CLR,FEW,0.00,WeatherDisplay:10.37,2013-09-24 03:44:00,
2013-09-23 22:49:00,60.1,59.0,29.96,East,84,0.0,0.0,96,0.00,CLR,FEW,0.00,WeatherDisplay:10.37,2013-09-24 03:49:00,
2013-09-23 22:54:00,60.0,58.9,29.96,East,85,0.0,0.0,96,0.00,CLR,FEW,0.00,WeatherDisplay:10.37,2013-09-24 03:54:00,
2013-09-23 22:59:00,60.0,58.9,29.96,East,85,0.0,0.0,96,0.00,CLR,FEW,0.00,WeatherDisplay:10.37,2013-09-24 03:59:00,
2013-09-23 23:01:00,60.0,58.9,29.96,East,85,0.0,0.0,96,0.00,CLR,FEW,0.00,WeatherDisplay:10.37,2013-09-24 04:01:00,
2013-09-23 23:06:00,59.9,58.8,29.96,East,84,0.0,0.0,96,0.00,CLR,FEW,0.00,WeatherDisplay:10.37,2013-09-24 04:06:00,
2013-09-23 23:11:00,59.8,58.7,29.96,East,84,0.0,0.0,96,0.00,CLR,FEW,0.00,WeatherDisplay:10.37,2013-09-24 04:11:00,
2013-09-23 23:16:00,59.7,58.6,29.96,East,85,0.0,0.0,96,0.00,CLR,FEW,0.00,WeatherDisplay:10.37,2013-09-24 04:16:00,
2013-09-23 23:21:00,59.6,58.5,29.96,East,85,0.0,0.0,96,0.00,CLR,FEW,0.00,WeatherDisplay:10.37,2013-09-24 04:21:00,
2013-09-23 23:26:00,59.6,58.5,29.96,East,85,0.0,0.0,96,0.00,CLR,FEW,0.00,WeatherDisplay:10.37,2013-09-24 04:26:00,
2013-09-23 23:31:00,59.6,58.5,29.95,East,84,0.0,0.0,96,0.00,CLR,FEW,0.00,WeatherDisplay:10.37,2013-09-24 04:31:00,
2013-09-23 23:36:00,59.5,58.4,29.96,East,85,0.0,0.0,96,0.00,CLR,FEW,0.00,WeatherDisplay:10.37,2013-09-24 04:36:00,
2013-09-23 23:41:00,59.4,58.3,29.96,East,85,0.0,0.0,96,0.00,CLR,FEW,0.00,WeatherDisplay:10.37,2013-09-24 04:41:00,
2013-09-23 23:46:00,59.4,58.3,29.96,East,85,0.0,0.0,96,0.00,CLR,FEW,0.00,WeatherDisplay:10.37,2013-09-24 04:46:00,
2013-09-23 23:51:00,59.2,58.1,29.96,East,84,0.0,0.0,96,0.00,CLR,FEW,0.00,WeatherDisplay:10.37,2013-09-24 04:51:00,
2013-09-23 23:56:00,59.2,58.1,29.95,East,84,0.0,0.0,96,0.00,CLR,FEW,0.00,WeatherDisplay:10.37,2013-09-24 04:56:00,